TimeCST,TemperatureF,Dew PointF,Humidity,Sea Level PressureIn,VisibilityMPH,Wind Direction,Wind SpeedMPH,Gust SpeedMPH,PrecipitationIn,Events,Conditions,WindDirDegrees,DateUTC
12:15 AM,32.0,30.9,96,29.88,4.0,NW,4.6,-,N/A,,Overcast,310,2012-12-29 06:15:00
12:35 AM,32.0,30.7,95,29.88,4.0,NW,4.6,-,N/A,,Overcast,320,2012-12-29 06:35:00
12:55 AM,32.0,30.7,95,29.88,4.0,NW,3.5,-,N/A,,Overcast,310,2012-12-29 06:55:00
1:15 AM,32.0,30.4,94,29.88,4.0,NW,3.5,-,N/A,,Overcast,310,2012-12-29 07:15:00
1:35 AM,32.0,30.2,93,29.89,4.0,WNW,4.6,-,N/A,,Overcast,300,2012-12-29 07:35:00
1:55 AM,32.0,30.0,92,29.90,4.0,WNW,3.5,-,N/A,,Overcast,300,2012-12-29 07:55:00
2:15 AM,31.8,29.8,92,29.91,4.0,WNW,4.6,-,N/A,,Overcast,300,2012-12-29 08:15:00
2:35 AM,31.6,29.7,92,29.91,5.0,WNW,6.9,-,N/A,,Overcast,300,2012-12-29 08:35:00
2:55 AM,31.6,29.5,92,29.91,5.0,WNW,4.6,-,N/A,,Overcast,300,2012-12-29 08:55:00
3:15 AM,31.5,29.3,92,29.91,5.0,WNW,6.9,-,N/A,,Overcast,290,2012-12-29 09:15:00
3:35 AM,31.1,29.1,92,29.91,5.0,WNW,8.1,-,N/A,,Overcast,300,2012-12-29 09:35:00
3:55 AM,31.1,28.4,90,29.91,5.0,WNW,5.8,-,N/A,,Overcast,300,2012-12-29 09:55:00
4:15 AM,30.9,28.0,89,29.92,5.0,NW,5.8,-,N/A,,Overcast,310,2012-12-29 10:15:00
4:35 AM,30.2,27.1,88,29.92,7.0,NW,4.6,-,N/A,,Overcast,310,2012-12-29 10:35:00
4:55 AM,30.2,26.4,86,29.93,10.0,NW,6.9,-,N/A,,Overcast,310,2012-12-29 10:55:00
5:15 AM,30.6,26.2,84,29.93,10.0,NW,8.1,-,N/A,,Overcast,310,2012-12-29 11:15:00
5:35 AM,30.2,25.9,84,29.94,10.0,NW,6.9,-,N/A,,Overcast,310,2012-12-29 11:35:00
5:55 AM,30.2,24.8,80,29.95,10.0,NW,8.1,-,N/A,,Overcast,310,2012-12-29 11:55:00
6:15 AM,30.2,24.8,80,29.96,10.0,NW,5.8,-,N/A,,Overcast,310,2012-12-29 12:15:00
6:35 AM,30.0,24.1,79,29.97,10.0,NW,8.1,-,N/A,,Overcast,320,2012-12-29 12:35:00
6:55 AM,30.0,23.0,75,29.97,10.0,NW,9.2,-,N/A,,Overcast,320,2012-12-29 12:55:00
7:15 AM,30.0,23.2,76,29.97,10.0,NW,11.5,16.1,N/A,,Overcast,310,2012-12-29 13:15:00
7:35 AM,29.8,22.6,75,29.99,10.0,NW,10.4,18.4,N/A,,Overcast,310,2012-12-29 13:35:00
7:55 AM,29.3,22.3,75,30.00,10.0,NW,8.1,-,N/A,,Overcast,320,2012-12-29 13:55:00
8:15 AM,29.1,22.1,75,30.00,10.0,NW,12.7,18.4,N/A,,Overcast,320,2012-12-29 14:15:00
8:35 AM,29.1,21.7,74,30.01,10.0,NW,8.1,19.6,N/A,,Overcast,310,2012-12-29 14:35:00
8:55 AM,29.1,21.7,74,30.02,10.0,NW,6.9,-,N/A,,Overcast,310,2012-12-29 14:55:00
9:15 AM,29.1,21.2,72,30.03,10.0,NW,9.2,-,N/A,,Overcast,310,2012-12-29 15:15:00
9:35 AM,28.8,19.4,68,30.04,10.0,WNW,10.4,24.2,N/A,,Overcast,300,2012-12-29 15:35:00
9:55 AM,28.9,19.6,68,30.05,10.0,WNW,12.7,23.0,N/A,,Overcast,300,2012-12-29 15:55:00
10:15 AM,28.8,20.1,70,30.06,7.0,WNW,9.2,20.7,N/A,,Overcast,300,2012-12-29 16:15:00
10:35 AM,27.9,22.1,79,30.07,2.5,WNW,9.2,19.6,N/A,Snow,Light Snow,290,2012-12-29 16:35:00
10:55 AM,27.3,23.0,84,30.07,2.5,NW,5.8,-,N/A,Snow,Light Snow,310,2012-12-29 16:55:00
11:15 AM,27.1,22.1,81,30.07,3.0,WNW,10.4,17.3,N/A,Snow,Light Snow,290,2012-12-29 17:15:00
11:35 AM,27.5,22.1,80,30.07,4.0,WNW,11.5,20.7,N/A,Snow,Light Snow,290,2012-12-29 17:35:00
11:55 AM,28.4,21.2,74,30.07,5.0,WNW,8.1,17.3,N/A,Snow,Light Snow,290,2012-12-29 17:55:00
12:15 PM,27.7,21.9,79,30.07,5.0,West,10.4,23.0,N/A,Snow,Light Snow,280,2012-12-29 18:15:00
12:35 PM,27.5,22.3,81,30.07,3.0,West,10.4,19.6,N/A,Snow,Light Snow,280,2012-12-29 18:35:00
12:55 PM,27.5,22.1,80,30.08,2.5,West,9.2,19.6,N/A,Snow,Light Snow,280,2012-12-29 18:55:00
1:15 PM,28.0,21.7,77,30.08,5.0,WNW,12.7,19.6,N/A,Snow,Light Snow,290,2012-12-29 19:15:00
1:35 PM,28.4,21.2,74,30.09,7.0,West,11.5,21.9,N/A,,Overcast,280,2012-12-29 19:35:00
1:55 PM,28.0,20.7,74,30.10,10.0,WNW,11.5,21.9,N/A,,Overcast,290,2012-12-29 19:55:00
2:15 PM,27.5,20.3,74,30.11,10.0,WNW,9.2,18.4,N/A,,Overcast,300,2012-12-29 20:15:00
2:35 PM,27.1,19.8,74,30.12,10.0,WNW,12.7,19.6,N/A,,Overcast,300,2012-12-29 20:35:00
2:55 PM,27.1,19.9,74,30.13,10.0,WNW,10.4,17.3,N/A,,Overcast,300,2012-12-29 20:55:00
3:15 PM,27.3,19.4,72,30.13,10.0,West,9.2,23.0,N/A,,Overcast,280,2012-12-29 21:15:00
3:35 PM,26.6,19.4,74,30.14,10.0,WNW,8.1,16.1,N/A,,Overcast,290,2012-12-29 21:35:00
3:55 PM,26.1,18.9,74,30.15,10.0,WNW,10.4,19.6,N/A,,Mostly Cloudy,290,2012-12-29 21:55:00
4:15 PM,25.3,19.4,78,30.17,10.0,West,6.9,-,N/A,,Mostly Cloudy,260,2012-12-29 22:15:00
4:35 PM,23.9,18.1,79,30.17,10.0,West,8.1,18.4,N/A,,Scattered Clouds,280,2012-12-29 22:35:00
4:55 PM,23.4,17.6,79,30.18,10.0,WNW,4.6,-,N/A,,Clear,290,2012-12-29 22:55:00
5:15 PM,22.8,17.6,80,30.19,10.0,WNW,8.1,-,N/A,,Clear,300,2012-12-29 23:15:00
5:35 PM,22.5,16.7,79,30.20,10.0,WNW,4.6,-,N/A,,Clear,300,2012-12-29 23:35:00
5:55 PM,22.1,17.1,81,30.20,10.0,WNW,6.9,-,N/A,,Clear,290,2012-12-29 23:55:00
6:15 PM,22.1,16.7,80,30.22,10.0,WNW,5.8,16.1,N/A,,Clear,290,2012-12-30 00:15:00
6:35 PM,21.6,16.7,82,30.23,10.0,WNW,6.9,-,N/A,,Scattered Clouds,300,2012-12-30 00:35:00
6:55 PM,21.0,16.3,82,30.24,10.0,WNW,5.8,-,N/A,,Clear,290,2012-12-30 00:55:00
7:15 PM,20.3,15.8,83,30.24,10.0,WNW,5.8,-,N/A,,Clear,290,2012-12-30 01:15:00
7:35 PM,20.1,15.4,82,30.25,7.0,WNW,6.9,-,N/A,,Clear,300,2012-12-30 01:35:00
7:55 PM,19.8,15.3,83,30.26,7.0,WNW,5.8,-,N/A,,Clear,300,2012-12-30 01:55:00
8:15 PM,19.4,15.1,83,30.27,7.0,WNW,5.8,-,N/A,,Clear,290,2012-12-30 02:15:00
8:35 PM,19.2,14.9,83,30.27,7.0,WNW,4.6,-,N/A,,Clear,290,2012-12-30 02:35:00
8:55 PM,19.0,14.5,83,30.27,7.0,WNW,4.6,-,N/A,,Clear,300,2012-12-30 02:55:00
9:15 PM,19.0,14.2,81,30.28,7.0,West,3.5,-,N/A,,Clear,280,2012-12-30 03:15:00
9:35 PM,18.7,14.0,82,30.28,7.0,Calm,Calm,-,N/A,,Clear,0,2012-12-30 03:35:00
9:55 PM,18.3,14.0,83,30.28,7.0,Calm,Calm,-,N/A,,Clear,0,2012-12-30 03:55:00
10:15 PM,18.1,14.0,84,30.28,7.0,Calm,Calm,-,N/A,,Clear,0,2012-12-30 04:15:00
10:35 PM,18.1,14.0,84,30.29,7.0,Calm,Calm,-,N/A,,Clear,0,2012-12-30 04:35:00
10:55 PM,18.1,14.0,84,30.30,7.0,Calm,Calm,-,N/A,,Clear,0,2012-12-30 04:55:00
11:15 PM,17.6,14.0,86,30.30,7.0,Calm,Calm,-,N/A,,Clear,0,2012-12-30 05:15:00
11:35 PM,17.6,14.0,86,30.30,7.0,Calm,Calm,-,N/A,,Clear,0,2012-12-30 05:35:00
11:55 PM,17.2,14.0,87,30.30,7.0,Calm,Calm,-,N/A,,Clear,0,2012-12-30 05:55:00